Location: *
(49.0044°N, 9.5056°E)
Time: 06:55:29
(UTC+00:00)

ERS-1 Rocket - Pass Details

Date: 22 September 2019
Orbit: 754 x 757 km, 98.5° (Epoch: 17 October)

Event Time Altitude Azimuth Distance (km) Brightness Sun altitude
Exits shadow 19:20:52 20° 57° (ENE) 1,711 4.5 -19.9°
Drops below altitude 10° 19:24:24 10° 13° (NNE) 2,294 5.6 -20.4°
Sets 19:27:14 0° 357° (N) 3,225 6.6 -20.9°
